QPF
0.00 0.00 0.00 0.02 0.07 0.10 0.06 0.05 0.02 0.01 0.00 0.00 0.00 0.00 0.01 0.02 0.03 0.01 0.00 0.00 0.02 0.01 0.00 0.00 0.00 0.00 0.00 0.00 0.00 0.00 0.00 0.00 0.00 0.01 0.02 0.01 0.01 0.00 0.01 0.00 0.01 0.02 0.02 0.01 0.00 0.00 0.00 0.00 0.00 0.01 0.01 0.01 0.08 0.08
0.00 0.01 0.01 0.01 0.03 0.07 0.13 0.09 0.04 0.01 0.01 0.00 0.00 0.00 0.01 0.03 0.03 0.00 0.00 0.00 0.01 0.02 0.00 0.00 0.00 0.00 0.00 0.00 0.00 0.00 0.00 0.00 0.00 0.00 0.01 0.01 0.00 0.00 0.00 0.02 0.01 0.02 0.09 0.06 0.01 0.00 0.00 0.00 0.00 0.00 0.00 0.12 0.10 0.03
0.01 0.01 0.01 0.01 0.02 0.04 0.07 0.09 0.05 0.02 0.01 0.00 0.01 0.00 0.00 0.02 0.03 0.01 0.00 0.00 0.02 0.02 0.00 0.00 0.00 0.00 0.00 0.00 0.00 0.00 0.00 0.00 0.01 0.01 0.03 0.00 0.00 0.01 0.00 0.00 0.02 0.02 0.02 0.08 0.05 0.02 0.03 0.00 0.00 0.00 0.00 0.02 0.12 0.01
0.00 0.00 0.01 0.02 0.04 0.04 0.04 0.07 0.07 0.02 0.02 0.00 0.00 0.01 0.00 0.01 0.03 0.02 0.00 0.00 0.00 0.01 0.01 0.00 0.00 0.00 0.00 0.00 0.00 0.00 0.00 0.00 0.01 0.01 0.01 0.01 0.01 0.01 0.00 0.01 0.07 0.10 0.13 0.18 0.11 0.02 0.08 0.02 0.00 0.00 0.00 0.01 0.02 0.00
0.00 0.00 0.00 0.02 0.07 0.09 0.03 0.05 0.17 0.04 0.01 0.01 0.00 0.00 0.00 0.01 0.04 0.03 0.02 0.01 0.00 0.01 0.01 0.00 0.00 0.00 0.00 0.00 0.00 0.00 0.00 0.00 0.00 0.01 0.01 0.00 0.00 0.00 0.00 0.01 0.06 0.10 0.13 0.17 0.14 0.07 0.12 0.05 0.02 0.01 0.00 0.04 0.10 0.01
0.01 0.00 0.00 0.01 0.10 0.11 0.07 0.02 0.10 0.09 0.01 0.00 0.00 0.00 0.00 0.02 0.03 0.03 0.05 0.01 0.00 0.01 0.02 0.00 0.00 0.00 0.00 0.00 0.00 0.00 0.00 0.00 0.00 0.01 0.00 0.00 0.00 0.02 0.03 0.00 0.01 0.04 0.07 0.18 0.23 0.15 0.19 0.15 0.05 0.02 0.10 0.20 0.26 0.10
0.00 0.00 0.01 0.01 0.08 0.14 0.08 0.02 0.04 0.06 0.01 0.01 0.00 0.00 0.02 0.03 0.01 0.00 0.01 0.00 0.00 0.03 0.02 0.01 0.00 0.00 0.00 0.00 0.00 0.00 0.00 0.01 0.00 0.01 0.01 0.00 0.02 0.02 0.01 0.00 0.00 0.00 0.06 0.10 0.17 0.17 0.15 0.09 0.09 0.06 0.06 0.10 0.12 0.03
0.01 0.01 0.01 0.02 0.11 0.12 0.04 0.03 0.04 0.05 0.01 0.00 0.00 0.01 0.04 0.03 0.02 0.02 0.01 0.10 0.07 0.03 0.01 0.00 0.00 0.00 0.00 0.00 0.00 0.00 0.00 0.01 0.01 0.02 0.01 0.00 0.01 0.01 0.01 0.00 0.00 0.00 0.03 0.01 0.02 0.02 0.05 0.08 0.06 0.06 0.05 0.03 0.01 0.00
0.01 0.02 0.07 0.03 0.09 0.10 0.02 0.03 0.04 0.05 0.01 0.00 0.00 0.02 0.05 0.04 0.03 0.01 0.01 0.05 0.08 0.08 0.06 0.01 0.00 0.00 0.00 0.00 0.00 0.00 0.00 0.00 0.01 0.02 0.01 0.02 0.01 0.01 0.00 0.00 0.00 0.00 0.00 0.00 0.00 0.00 0.00 0.00 0.01 0.02 0.04 0.03 0.00 0.00
0.04 0.06 0.13 0.03 0.08 0.05 0.01 0.02 0.06 0.06 0.02 0.01 0.03 0.02 0.02 0.01 0.01 0.02 0.03 0.04 0.03 0.02 0.02 0.01 0.00 0.00 0.00 0.00 0.02 0.07 0.07 0.03 0.03 0.01 0.02 0.03 0.02 0.01 0.00 0.00 0.00 0.00 0.00 0.00 0.00 0.00 0.00 0.00 0.00 0.00 0.00 0.01 0.01 0.00
0.10 0.14 0.11 0.03 0.03 0.00 0.00 0.02 0.07 0.03 0.03 0.01 0.01 0.00 0.01 0.02 0.06 0.05 0.11 0.06 0.04 0.02 0.01 0.00 0.00 0.00 0.00 0.00 0.02 0.03 0.06 0.10 0.02 0.01 0.01 0.02 0.02 0.01 0.01 0.00 0.00 0.00 0.00 0.00 0.00 0.00 0.00 0.00 0.00 0.00 0.00 0.00 0.00 0.00
0.11 0.14 0.05 0.01 0.00 0.01 0.01 0.03 0.04 0.02 0.01 0.00 0.00 0.04 0.21 0.09 0.09 0.08 0.06 0.02 0.00 0.00 0.00 0.00 0.00 0.00 0.00 0.01 0.03 0.02 0.04 0.03 0.01 0.00 0.02 0.01 0.01 0.00 0.00 0.00 0.00 0.00 0.00 0.00 0.00 0.00 0.00 0.00 0.00 0.00 0.00 0.00 0.00 0.00
0.07 0.05 0.01 0.01 0.01 0.02 0.02 0.02 0.01 0.00 0.00 0.02 0.09 0.17 0.19 0.06 0.06 0.02 0.01 0.01 0.00 0.00 0.00 0.00 0.00 0.00 0.00 0.02 0.04 0.06 0.12 0.04 0.02 0.03 0.02 0.01 0.01 0.01 0.01 0.00 0.00 0.00 0.00 0.00 0.00 0.00 0.00 0.00 0.00 0.00 0.00 0.00 0.00 0.00
0.01 0.01 0.01 0.01 0.01 0.01 0.01 0.01 0.00 0.00 0.02 0.11 0.16 0.10 0.03 0.01 0.00 0.00 0.00 0.00 0.00 0.00 0.00 0.00 0.00 0.00 0.00 0.02 0.02 0.07 0.13 0.16 0.11 0.02 0.03 0.03 0.01 0.00 0.00 0.01 0.01 0.00 0.00 0.00 0.00 0.00 0.00 0.00 0.00 0.00 0.00 0.00 0.00 0.00
0.01 0.01 0.01 0.01 0.01 0.00 0.01 0.02 0.04 0.01 0.08 0.18 0.07 0.00 0.00 0.00 0.00 0.00 0.00 0.00 0.00 0.00 0.00 0.00 0.01 0.01 0.03 0.02 0.05 0.01 0.01 0.02 0.03 0.03 0.05 0.04 0.01 0.01 0.00 0.00 0.00 0.00 0.00 0.00 0.00 0.00 0.00 0.00 0.00 0.00 0.00 0.00 0.00 0.00
0.00 0.01 0.00 0.00 0.00 0.01 0.02 0.06 0.09 0.04 0.05 0.07 0.00 0.00 0.00 0.00 0.00 0.00 0.00 0.00 0.00 0.00 0.00 0.00 0.02 0.02 0.02 0.02 0.01 0.00 0.00 0.01 0.02 0.01 0.00 0.00 0.00 0.00 0.00 0.00 0.00 0.00 0.00 0.00 0.00 0.00 0.00 0.00 0.00 0.00 0.00 0.00 0.00 0.00
0.00 0.00 0.00 0.00 0.01 0.03 0.04 0.09 0.08 0.04 0.02 0.01 0.00 0.00 0.00 0.00 0.00 0.00 0.00 0.00 0.00 0.00 0.01 0.01 0.03 0.10 0.03 0.01 0.00 0.00 0.00 0.01 0.01 0.01 0.00 0.00 0.00 0.00 0.00 0.00 0.00 0.00 0.00 0.00 0.00 0.00 0.00 0.00 0.00 0.00 0.00 0.00 0.00 0.00
0.00 0.00 0.00 0.02 0.08 0.09 0.08 0.04 0.02 0.03 0.02 0.00 0.00 0.00 0.00 0.00 0.00 0.00 0.00 0.00 0.01 0.01 0.00 0.01 0.00 0.01 0.01 0.01 0.00 0.00 0.01 0.01 0.00 0.00 0.00 0.00 0.00 0.00 0.00 0.00 0.00 0.00 0.00 0.00 0.00 0.00 0.00 0.00 0.00 0.00 0.00 0.00 0.00 0.00
0.01 0.01 0.01 0.05 0.03 0.02 0.06 0.02 0.00 0.00 0.01 0.00 0.00 0.00 0.00 0.00 0.00 0.00 0.00 0.01 0.03 0.02 0.01 0.00 0.03 0.02 0.00 0.00 0.00 0.01 0.01 0.01 0.00 0.01 0.00 0.00 0.00 0.00 0.00 0.00 0.00 0.00 0.00 0.00 0.00 0.00 0.00 0.00 0.00 0.00 0.00 0.00 0.00 0.00
0.06 0.03 0.02 0.03 0.01 0.01 0.01 0.00 0.00 0.00 0.00 0.00 0.00 0.00 0.00 0.00 0.00 0.00 0.00 0.01 0.01 0.01 0.01 0.01 0.01 0.01 0.01 0.01 0.01 0.01 0.01 0.01 0.01 0.01 0.01 0.01 0.01 0.00 0.00 0.00 0.00 0.00 0.00 0.00 0.00 0.00 0.00 0.00 0.00 0.00 0.00 0.00 0.00 0.00
0.11 0.07 0.06 0.04 0.02 0.01 0.00 0.00 0.00 0.00 0.00 0.00 0.00 0.00 0.00 0.00 0.00 0.00 0.00 0.00 0.00 0.00 0.00 0.00 0.01 0.01 0.01 0.01 0.01 0.01 0.01 0.01 0.01 0.01 0.01 0.01 0.01 0.00 0.00 0.00 0.00 0.00 0.00 0.00 0.00 0.00 0.00 0.00 0.00 0.00 0.00 0.00 0.00 0.00
0.04 0.04 0.03 0.01 0.00 0.00 0.00 0.00 0.00 0.00 0.00 0.00 0.00 0.00 0.00 0.00 0.00 0.00 0.00 0.00 0.00 0.00 0.00 0.00 0.01 0.01 0.01 0.01 0.01 0.01 0.01 0.01 0.01 0.01 0.01 0.01 0.01 0.00 0.00 0.00 0.00 0.00 0.00 0.00 0.00 0.01 0.00 0.00 0.00 0.00 0.00 0.01 0.00 0.00
0.00 0.00 0.00 0.00 0.00 0.00 0.00 0.00 0.00 0.00 0.00 0.00 0.00 0.00 0.00 0.00 0.00 0.00 0.00 0.00 0.01 0.01 0.01 0.01 0.01 0.02 0.01 0.01 0.01 0.00 0.00 0.00 0.00 0.00 0.00 0.00 0.00 0.00 0.00 0.00 0.00 0.00 0.00 0.00 0.00 0.00 0.00 0.00 0.00 0.01 0.01 0.01 0.01 0.01
0.00 0.00 0.00 0.00 0.00 0.00 0.00 0.00 0.00 0.00 0.00 0.00 0.00 0.00 0.00 0.00 0.00 0.00 0.00 0.00 0.01 0.01 0.01 0.00 0.00 0.00 0.00 0.00 0.00 0.00 0.00 0.00 0.00 0.00 0.00 0.00 0.00 0.00 0.00 0.00 0.00 0.00 0.00 0.00 0.00 0.00 0.00 0.00 0.00 0.00 0.00 0.00 0.01 0.00
0.00 0.00 0.00 0.00 0.00 0.00 0.00 0.00 0.00 0.00 0.00 0.00 0.00 0.00 0.00 0.00 0.00 0.00 0.00 0.00 0.00 0.00 0.00 0.00 0.00 0.00 0.00 0.00 0.00 0.00 0.00 0.00 0.00 0.00 0.00 0.00 0.00 0.00 0.00 0.00 0.00 0.00 0.00 0.00 0.00 0.00 0.00 0.00 0.00 0.00 0.00 0.00 0.00 0.00
0.00 0.00 0.00 0.00 0.00 0.00 0.00 0.00 0.00 0.00 0.00 0.00 0.00 0.00 0.00 0.00 0.00 0.00 0.00 0.00 0.00 0.00 0.00 0.00 0.00 0.00 0.00 0.00 0.00 0.00 0.00 0.00 0.00 0.00 0.00 0.00 0.00 0.00 0.00 0.00 0.00 0.00 0.00 0.00 0.00 0.00 0.00 0.00 0.00 0.00 0.00 0.00 0.00 0.00
0.00 0.00 0.00 0.00 0.00 0.00 0.00 0.00 0.00 0.00 0.00 0.00 0.00 0.00 0.00 0.00 0.00 0.00 0.00 0.00 0.00 0.00 0.00 0.00 0.00 0.00 0.00 0.00 0.00 0.00 0.00 0.00 0.00 0.00 0.00 0.00 0.00 0.00 0.00 0.00 0.00 0.00 0.00 0.00 0.00 0.00 0.00 0.00 0.00 0.00 0.01 0.01 0.00 0.00
0.00 0.00 0.00 0.00 0.00 0.00 0.00 0.00 0.00 0.00 0.00 0.00 0.00 0.00 0.00 0.00 0.00 0.00 0.00 0.00 0.00 0.00 0.00 0.00 0.00 0.00 0.00 0.00 0.00 0.00 0.00 0.00 0.00 0.00 0.00 0.00 0.00 0.00 0.00 0.00 0.00 0.00 0.00 0.00 0.00 0.00 0.00 0.00 0.00 0.00 0.01 0.01 0.00 0.00
0.00 0.00 0.00 0.00 0.00 0.00 0.00 0.00 0.00 0.00 0.00 0.00 0.00 0.00 0.00 0.00 0.00 0.00 0.00 0.00 0.00 0.00 0.00 0.00 0.00 0.00 0.00 0.00 0.00 0.00 0.00 0.00 0.00 0.00 0.00 0.00 0.00 0.00 0.00 0.00 0.00 0.00 0.00 0.00 0.00 0.00 0.00 0.00 0.00 0.00 0.00 0.00 0.00 0.00
0.00 0.00 0.00 0.00 0.00 0.00 0.00 0.00 0.00 0.00 0.00 0.00 0.00 0.00 0.00 0.00 0.01 0.00 0.00 0.00 0.00 0.00 0.00 0.00 0.00 0.00 0.00 0.00 0.00 0.00 0.00 0.00 0.00 0.00 0.00 0.00 0.00 0.00 0.00 0.00 0.00 0.00 0.00 0.00 0.00 0.00 0.00 0.00 0.00 0.00 0.00 0.00 0.00 0.00
0.00 0.00 0.00 0.00 0.00 0.00 0.00 0.00 0.00 0.00 0.00 0.00 0.00 0.00 0.00 0.00 0.00 0.00 0.00 0.00 0.00 0.00 0.00 0.00 0.00 0.00 0.00 0.00 0.00 0.00 0.00 0.00 0.00 0.00 0.00 0.00 0.00 0.00 0.00 0.00 0.00 0.00 0.00 0.00 0.00 0.00 0.00 0.00 0.00 0.00 0.00 0.00 0.00 0.00
0.00 0.00 0.00 0.00 0.00 0.00 0.00 0.00 0.00 0.00 0.00 0.00 0.00 0.00 0.00 0.00 0.00 0.00 0.00 0.00 0.00 0.00 0.00 0.00 0.00 0.00 0.00 0.00 0.00 0.00 0.00 0.00 0.00 0.00 0.00 0.00 0.00 0.00 0.00 0.00 0.00 0.00 0.00 0.00 0.00 0.00 0.00 0.00 0.00 0.00 0.00 0.00 0.00 0.00
0.00 0.00 0.00 0.00 0.00 0.00 0.00 0.00 0.00 0.00 0.00 0.00 0.00 0.00 0.00 0.00 0.00 0.00 0.00 0.00 0.00 0.00 0.00 0.00 0.00 0.00 0.00 0.00 0.00 0.00 0.00 0.00 0.00 0.00 0.00 0.00 0.00 0.00 0.00 0.00 0.00 0.00 0.00 0.00 0.00 0.00 0.00 0.00 0.00 0.00 0.00 0.00 0.00 0.00
MSLP
1010.18 1010.34 1010.74 1011.17 1011.48 1011.97 1012.38 1012.98 1013.72 1014.64 1015.36 1016.06 1016.78 1017.38 1017.92 1018.51 1019.18 1019.80 1019.79 1020.41 1020.41 1020.06 1019.25 1019.76 1019.59 1019.31 1019.07 1018.97 1018.53 1018.28 1018.31 1018.02 1017.21 1016.62 1015.72 1014.88 1014.03 1013.12 1012.78 1012.55 1012.19 1011.39 1010.54 1009.73 1008.93 1008.01 1007.05 1006.81 1005.67 1005.81 1006.08 1005.21 1004.72 1004.85
1009.51 1009.93 1010.32 1010.66 1011.06 1011.49 1012.03 1012.51 1013.11 1014.02 1014.84 1015.62 1016.34 1017.02 1017.60 1018.22 1018.92 1019.59 1019.74 1020.30 1020.67 1020.92 1019.52 1019.95 1019.65 1019.27 1018.97 1018.85 1018.87 1018.74 1018.65 1018.73 1017.95 1017.46 1016.64 1015.94 1015.21 1014.35 1013.57 1012.93 1012.93 1012.36 1012.71 1012.03 1010.72 1008.75 1008.43 1008.40 1008.59 1008.22 1007.43 1006.45 1006.25 1005.94
1008.76 1009.36 1009.73 1010.03 1010.53 1010.97 1011.65 1012.38 1013.00 1013.61 1014.40 1015.20 1016.03 1016.67 1017.26 1017.89 1018.58 1019.21 1019.48 1020.34 1020.91 1020.83 1020.12 1019.27 1018.35 1018.20 1018.56 1018.65 1018.83 1019.00 1018.71 1018.51 1018.74 1019.22 1018.52 1017.61 1016.58 1015.25 1014.12 1013.35 1013.71 1013.42 1013.04 1012.81 1012.14 1010.81 1011.11 1011.05 1010.34 1009.70 1009.04 1008.50 1007.20 1007.31
1008.07 1008.57 1009.11 1009.54 1010.04 1010.66 1010.85 1011.60 1012.33 1013.11 1013.98 1014.90 1015.73 1016.44 1017.02 1017.70 1018.35 1019.07 1019.25 1019.80 1020.25 1020.39 1019.49 1017.56 1017.65 1017.62 1017.45 1017.77 1018.18 1018.46 1018.44 1018.63 1018.96 1019.28 1018.66 1017.44 1016.41 1015.32 1014.60 1014.64 1014.56 1014.52 1014.27 1013.86 1012.54 1012.33 1012.40 1012.45 1012.34 1011.76 1011.06 1010.63 1010.14 1009.70
1007.35 1007.87 1008.38 1008.91 1009.57 1010.24 1010.53 1010.92 1011.74 1012.84 1013.79 1014.61 1015.47 1016.16 1016.83 1017.47 1018.12 1018.83 1019.11 1019.46 1019.36 1019.49 1018.84 1017.61 1017.23 1016.33 1016.58 1017.04 1017.45 1018.02 1018.51 1018.71 1018.92 1019.04 1018.45 1017.38 1016.12 1015.49 1014.77 1014.74 1014.50 1015.03 1015.52 1015.35 1014.51 1014.81 1014.34 1014.55 1014.09 1013.41 1012.72 1012.60 1012.06 1011.52
1006.52 1007.20 1007.82 1008.36 1008.95 1009.64 1010.17 1010.64 1011.20 1012.57 1013.57 1014.35 1015.22 1015.98 1016.54 1017.22 1017.98 1018.88 1019.28 1019.16 1019.12 1019.44 1019.25 1017.93 1016.64 1016.11 1016.29 1016.58 1017.21 1017.71 1018.23 1018.65 1019.00 1018.86 1018.16 1016.96 1015.88 1015.85 1014.90 1014.26 1015.09 1015.64 1016.20 1016.45 1016.35 1015.82 1015.80 1015.41 1015.30 1014.63 1014.18 1014.10 1013.86 1013.56
1005.81 1006.61 1007.21 1007.78 1008.35 1008.85 1009.38 1010.43 1011.74 1012.80 1013.49 1014.31 1015.11 1015.71 1016.45 1017.17 1017.74 1018.25 1018.22 1018.18 1018.50 1019.42 1019.44 1018.22 1016.31 1016.12 1016.36 1016.73 1017.30 1017.85 1018.23 1018.61 1018.67 1018.23 1017.29 1016.13 1015.32 1015.60 1014.94 1014.51 1014.84 1016.25 1016.74 1016.93 1016.82 1016.27 1016.20 1016.33 1016.19 1015.77 1015.08 1014.94 1014.63 1014.59
1005.17 1005.92 1006.59 1007.21 1007.81 1008.77 1008.97 1010.25 1011.42 1012.57 1013.44 1014.30 1015.05 1015.72 1016.52 1017.32 1018.01 1018.21 1018.59 1018.40 1018.88 1019.27 1019.17 1018.07 1016.32 1015.85 1016.24 1016.26 1016.73 1017.46 1017.80 1018.15 1017.80 1016.91 1016.32 1015.50 1015.03 1015.28 1014.75 1015.02 1016.14 1016.95 1017.22 1017.41 1017.30 1017.36 1017.49 1017.33 1016.94 1016.58 1016.07 1015.49 1015.31 1015.33
1004.60 1005.31 1006.01 1006.86 1007.65 1008.09 1008.94 1010.05 1011.32 1012.56 1013.54 1014.28 1015.10 1016.03 1016.98 1017.54 1017.64 1017.25 1018.04 1018.76 1019.30 1019.75 1018.43 1017.49 1015.90 1014.99 1016.01 1015.90 1016.15 1016.87 1016.99 1016.90 1016.17 1015.88 1015.14 1015.16 1014.77 1014.87 1015.62 1016.25 1017.10 1017.82 1018.10 1018.04 1017.77 1017.86 1017.76 1017.72 1017.47 1017.25 1017.04 1016.82 1016.50 1016.51
1004.12 1004.92 1005.76 1006.49 1007.44 1008.10 1008.88 1010.01 1011.26 1012.38 1013.43 1014.49 1015.52 1016.30 1016.65 1016.96 1017.11 1017.51 1018.47 1018.63 1018.86 1018.58 1018.35 1016.77 1015.25 1014.83 1015.26 1015.37 1015.55 1015.79 1015.71 1015.00 1014.64 1014.17 1014.22 1014.60 1014.66 1016.40 1017.37 1018.01 1018.41 1018.74 1018.89 1018.75 1018.25 1018.36 1018.51 1018.40 1018.30 1018.20 1018.15 1018.07 1017.94 1017.83
1003.73 1004.63 1005.34 1006.42 1007.15 1008.09 1009.11 1010.26 1011.28 1012.54 1013.66 1014.46 1015.36 1015.64 1015.83 1016.35 1016.92 1017.19 1017.10 1017.22 1017.10 1016.85 1016.42 1015.18 1014.49 1014.25 1014.68 1014.54 1014.73 1014.84 1014.34 1014.12 1013.42 1013.22 1013.81 1013.95 1015.09 1017.23 1018.26 1018.80 1019.17 1019.48 1019.60 1019.75 1019.73 1019.86 1019.78 1019.89 1019.72 1019.37 1019.18 1019.15 1019.05 1018.89
1003.46 1004.53 1005.18 1006.46 1007.42 1008.37 1009.44 1010.65 1011.69 1012.47 1013.29 1013.80 1014.13 1015.17 1016.00 1016.17 1016.07 1015.83 1015.27 1015.44 1015.18 1014.17 1014.08 1014.17 1014.22 1014.21 1013.77 1013.97 1014.02 1014.39 1014.02 1013.71 1012.77 1013.26 1013.99 1014.46 1017.02 1018.36 1018.99 1019.58 1019.94 1020.29 1020.50 1020.65 1020.87 1020.88 1020.90 1021.08 1021.13 1020.85 1020.75 1020.66 1020.64 1020.61
1003.61 1004.75 1005.95 1006.79 1007.86 1008.90 1009.88 1010.95 1011.73 1012.52 1013.17 1013.88 1014.19 1014.45 1014.62 1014.57 1014.02 1013.87 1013.71 1013.62 1013.39 1013.19 1013.53 1013.81 1014.06 1013.86 1014.05 1014.08 1013.89 1013.89 1013.15 1012.65 1012.86 1013.49 1014.34 1016.53 1018.18 1019.24 1019.91 1020.36 1020.85 1021.27 1021.59 1021.76 1021.93 1022.03 1022.09 1022.36 1022.54 1022.30 1022.06 1021.90 1021.66 1021.57
1004.61 1005.47 1006.39 1007.40 1008.40 1009.36 1010.35 1011.43 1012.22 1012.74 1013.13 1013.69 1013.87 1013.35 1013.23 1013.46 1013.00 1012.70 1012.47 1012.38 1013.16 1013.19 1013.41 1013.59 1013.67 1013.78 1013.75 1013.77 1013.46 1013.10 1012.94 1012.96 1013.17 1014.25 1015.98 1017.75 1019.08 1020.04 1020.72 1021.27 1021.68 1022.28 1022.84 1023.08 1023.34 1023.36 1023.44 1023.41 1023.40 1023.40 1023.42 1023.13 1022.78 1022.44
1005.59 1006.51 1007.30 1008.22 1009.12 1010.12 1011.07 1011.93 1012.64 1013.46 1013.95 1013.82 1013.34 1012.97 1013.19 1013.26 1013.35 1013.47 1013.53 1013.67 1014.02 1013.84 1013.54 1013.66 1013.69 1013.72 1013.47 1013.48 1013.18 1013.11 1013.17 1013.84 1014.87 1016.17 1017.72 1018.92 1020.02 1020.77 1021.37 1021.88 1022.39 1022.92 1023.44 1023.74 1024.03 1024.23 1024.38 1024.30 1024.13 1024.07 1023.99 1023.72 1023.47 1023.26
1006.34 1007.35 1008.20 1009.01 1009.83 1010.66 1011.86 1012.69 1013.63 1014.19 1014.66 1014.61 1014.44 1014.15 1014.00 1013.93 1014.25 1014.39 1014.44 1014.74 1015.05 1014.66 1014.26 1014.09 1013.66 1013.52 1013.40 1013.42 1013.69 1014.15 1014.51 1015.16 1016.72 1017.93 1019.13 1020.08 1020.97 1021.60 1022.10 1022.55 1023.02 1023.47 1023.82 1024.17 1024.45 1024.56 1024.74 1024.71 1024.66 1024.60 1024.58 1024.47 1024.25 1024.04
1006.78 1007.49 1008.64 1009.50 1010.37 1011.37 1012.46 1013.49 1014.29 1014.87 1015.09 1015.26 1015.45 1015.80 1015.48 1015.14 1015.25 1015.68 1015.87 1016.07 1016.15 1015.50 1014.44 1014.13 1013.92 1013.97 1014.31 1014.47 1015.28 1016.05 1016.44 1017.38 1018.41 1019.43 1020.31 1021.14 1021.75 1022.37 1022.70 1022.94 1023.33 1023.69 1024.04 1024.32 1024.62 1024.79 1024.88 1024.92 1024.80 1024.61 1024.52 1024.66 1024.52 1024.57
1007.15 1008.08 1009.06 1009.92 1011.05 1012.26 1013.42 1013.78 1014.19 1014.91 1015.54 1015.96 1016.03 1016.60 1016.89 1017.00 1016.78 1016.95 1017.03 1016.99 1016.61 1015.86 1015.33 1015.35 1015.36 1015.41 1015.78 1016.21 1016.95 1017.96 1018.56 1019.23 1019.84 1020.48 1021.27 1022.07 1022.58 1022.98 1023.12 1023.25 1023.62 1023.79 1024.08 1024.42 1024.67 1024.89 1024.90 1024.75 1024.47 1024.40 1024.51 1024.67 1024.51 1024.48
1007.78 1008.66 1009.71 1010.68 1011.08 1012.03 1013.22 1014.23 1014.36 1015.06 1016.03 1016.56 1017.08 1017.40 1017.55 1017.75 1018.06 1018.12 1017.88 1017.74 1017.60 1017.35 1016.93 1016.90 1017.10 1017.61 1018.25 1018.94 1019.14 1019.57 1019.86 1020.16 1020.76 1021.41 1022.18 1022.84 1023.17 1023.54 1023.72 1023.92 1024.08 1024.25 1024.50 1024.62 1024.71 1024.74 1024.91 1025.23 1025.04 1024.80 1024.83 1024.82 1024.71 1024.88
1008.73 1009.58 1010.54 1011.04 1011.20 1012.26 1013.38 1014.38 1014.84 1015.35 1016.03 1016.85 1017.30 1017.62 1017.96 1018.24 1018.63 1018.66 1018.46 1018.33 1018.25 1018.30 1018.57 1018.90 1019.50 1020.15 1020.30 1020.82 1021.02 1021.03 1021.10 1021.18 1021.41 1021.79 1022.34 1023.03 1023.58 1023.94 1024.15 1024.22 1024.38 1024.66 1024.73 1024.99 1025.10 1025.35 1025.16 1025.29 1025.46 1025.50 1025.51 1025.45 1025.19 1025.26
1009.44 1010.76 1011.47 1011.71 1012.58 1012.97 1013.60 1014.20 1015.00 1015.59 1016.25 1016.76 1017.51 1017.64 1018.24 1018.56 1018.67 1018.79 1018.88 1019.06 1019.11 1019.74 1020.21 1020.83 1021.21 1021.79 1022.16 1022.31 1022.32 1022.26 1022.27 1022.03 1022.11 1022.16 1022.32 1023.02 1023.75 1024.02 1024.33 1024.54 1024.72 1024.69 1024.76 1024.94 1025.04 1025.42 1025.49 1025.47 1025.69 1025.84 1025.84 1025.91 1025.96 1025.94
1009.66 1010.66 1011.58 1012.26 1012.72 1013.25 1013.68 1014.20 1014.45 1015.23 1015.93 1016.61 1017.15 1017.62 1018.07 1018.46 1018.81 1019.26 1019.52 1019.56 1020.42 1021.28 1021.48 1021.82 1022.29 1022.62 1023.02 1023.29 1023.50 1023.41 1023.46 1023.33 1023.35 1023.45 1023.64 1023.84 1023.92 1024.20 1024.43 1024.66 1024.65 1024.86 1025.03 1025.20 1025.34 1025.50 1025.66 1025.94 1026.14 1026.25 1026.29 1026.46 1026.46 1026.45
1009.98 1010.80 1011.28 1011.58 1012.17 1012.87 1014.46 1014.48 1014.49 1015.20 1015.84 1016.65 1017.17 1017.65 1018.25 1018.67 1019.21 1019.65 1020.02 1020.79 1021.58 1022.27 1022.58 1022.93 1023.33 1023.57 1023.83 1024.25 1024.48 1024.59 1024.47 1024.14 1024.10 1024.24 1024.36 1024.49 1024.67 1024.81 1024.89 1025.05 1025.11 1025.14 1025.23 1025.55 1025.72 1025.79 1025.99 1026.38 1026.52 1026.42 1026.55 1026.55 1026.57 1026.72
1009.14 1010.67 1011.59 1012.21 1012.74 1014.05 1014.57 1014.55 1014.79 1015.35 1016.08 1016.56 1017.11 1017.80 1018.43 1018.85 1019.54 1019.79 1020.46 1021.37 1022.17 1022.59 1022.93 1023.47 1023.58 1023.88 1024.31 1024.61 1024.76 1025.14 1025.23 1024.95 1024.93 1025.13 1025.12 1024.93 1025.05 1025.37 1025.47 1025.60 1025.75 1025.85 1025.86 1025.86 1025.97 1026.10 1026.26 1026.40 1026.63 1026.55 1026.67 1026.68 1026.73 1026.75
1010.79 1013.83 1013.64 1014.02 1014.30 1014.50 1014.88 1015.18 1015.45 1015.75 1016.26 1016.90 1017.48 1018.11 1018.72 1019.15 1019.53 1020.08 1020.61 1021.69 1022.35 1022.81 1023.38 1023.66 1023.76 1023.86 1024.12 1024.78 1025.26 1025.63 1025.93 1025.44 1025.21 1025.50 1025.96 1025.82 1025.78 1025.79 1025.92 1026.15 1026.41 1026.58 1026.48 1026.12 1026.09 1026.19 1026.34 1026.50 1026.59 1026.65 1026.75 1026.79 1026.88 1027.05
1012.75 1014.88 1014.88 1014.84 1015.03 1014.92 1015.29 1015.55 1015.84 1016.23 1016.70 1017.29 1018.02 1018.83 1019.18 1019.35 1019.80 1020.29 1020.78 1021.65 1022.35 1023.04 1023.59 1023.77 1023.93 1024.26 1024.71 1025.03 1025.35 1025.72 1026.13 1026.25 1026.06 1026.11 1026.75 1026.76 1026.64 1026.40 1026.45 1026.52 1026.63 1026.95 1027.23 1026.99 1026.58 1026.33 1026.34 1026.53 1026.63 1026.79 1026.84 1027.09 1027.35 1027.28
1014.25 1015.40 1015.78 1016.24 1015.95 1016.01 1016.35 1016.64 1016.83 1016.79 1017.15 1017.49 1018.23 1019.08 1019.43 1019.70 1020.17 1021.09 1021.97 1022.53 1022.69 1023.51 1023.99 1024.32 1024.34 1024.50 1025.09 1025.75 1026.28 1026.62 1026.83 1026.92 1026.83 1027.08 1027.57 1027.72 1027.82 1027.82 1027.64 1027.53 1027.77 1028.13 1028.03 1027.59 1027.20 1026.89 1026.62 1026.55 1026.58 1026.71 1026.83 1027.05 1027.25 1027.39
1015.55 1016.09 1016.51 1017.27 1017.20 1017.42 1017.37 1017.55 1017.69 1017.74 1017.98 1018.33 1018.67 1019.33 1019.66 1020.06 1020.94 1021.69 1022.09 1023.15 1023.55 1024.10 1024.69 1025.20 1025.37 1025.66 1026.10 1026.66 1026.84 1027.09 1027.47 1027.81 1028.00 1028.02 1028.16 1028.35 1028.51 1028.65 1028.80 1028.79 1028.99 1029.08 1028.60 1028.11 1027.64 1027.37 1027.20 1027.07 1026.99 1027.04 1027.10 1027.16 1027.46 1027.73
1016.58 1017.18 1017.39 1018.38 1018.50 1018.74 1019.04 1019.01 1019.02 1019.35 1019.76 1019.40 1019.55 1020.43 1021.16 1021.91 1022.76 1022.83 1023.42 1023.71 1024.15 1024.54 1025.04 1025.73 1026.55 1026.92 1027.28 1027.72 1028.02 1028.12 1027.91 1027.95 1028.00 1028.15 1028.14 1028.09 1028.35 1028.75 1029.27 1029.27 1029.09 1028.91 1028.63 1028.21 1027.91 1027.83 1027.92 1027.83 1027.88 1027.83 1027.91 1027.83 1028.10 1028.21
1017.61 1017.92 1018.24 1019.04 1019.40 1019.78 1020.40 1020.72 1020.60 1020.95 1020.91 1020.90 1020.99 1021.72 1022.40 1023.17 1023.93 1024.33 1024.16 1024.33 1024.47 1024.79 1025.34 1025.93 1026.65 1026.82 1027.19 1027.46 1028.09 1028.69 1029.12 1029.21 1029.11 1028.88 1028.50 1028.50 1028.83 1029.51 1029.68 1029.66 1029.56 1029.41 1029.21 1028.75 1028.45 1028.30 1028.48 1028.42 1028.50 1028.61 1028.54 1028.51 1028.43 1028.60
1018.27 1018.40 1018.88 1019.49 1020.08 1020.73 1021.19 1021.64 1021.72 1021.62 1021.58 1021.72 1021.95 1021.99 1022.71 1023.49 1024.27 1024.85 1024.84 1025.00 1025.28 1025.69 1026.04 1026.61 1027.14 1027.43 1027.68 1027.94 1028.08 1028.54 1029.06 1029.74 1029.97 1029.90 1029.78 1029.83 1029.96 1030.02 1030.17 1030.26 1030.19 1029.98 1029.54 1029.23 1028.99 1028.78 1028.70 1028.72 1028.70 1028.79 1028.88 1029.06 1029.26 1029.24
1018.50 1018.69 1018.99 1019.67 1020.59 1021.34 1021.63 1021.27 1021.28 1021.29 1021.64 1021.70 1022.38 1022.95 1023.60 1023.51 1023.92 1024.67 1025.35 1025.55 1025.66 1025.77 1026.21 1026.53 1026.88 1027.50 1028.20 1028.65 1028.98 1029.20 1029.36 1029.84 1030.26 1030.50 1030.49 1030.48 1030.45 1030.64 1030.64 1030.61 1030.53 1030.08 1029.77 1029.62 1029.49 1029.39 1029.27 1029.23 1029.31 1029.42 1029.57 1029.74 1029.94 1030.08
1018.91 1019.08 1019.28 1019.57 1020.29 1020.69 1020.95 1020.91 1020.76 1021.23 1021.45 1021.82 1022.34 1022.79 1023.07 1023.16 1023.67 1024.23 1025.55 1025.73 1025.63 1025.57 1026.28 1026.90 1027.54 1028.22 1028.86 1029.22 1029.51 1029.87 1030.23 1030.61 1031.23 1031.18 1031.61 1031.70 1031.88 1031.45 1030.88 1030.71 1030.50 1030.33 1030.21 1030.14 1030.11 1030.04 1029.96 1029.99 1030.06 1030.21 1030.38 1030.55 1030.67 1030.76
Thickness
5288 5297 5304 5311 5318 5323 5328 5331 5334 5335 5335 5337 5337 5339 5340 5341 5340 5339 5341 5338 5341 5345 5354 5345 5345 5345 5346 5345 5347 5353 5352 5351 5364 5366 5378 5387 5393 5407 5403 5405 5408 5418 5433 5442 5452 5450 5459 5473 5486 5480 5480 5493 5493 5495
5273 5279 5287 5297 5305 5312 5317 5321 5323 5327 5328 5329 5331 5332 5334 5334 5334 5332 5334 5332 5331 5329 5346 5338 5338 5340 5342 5342 5342 5341 5342 5336 5351 5359 5374 5378 5381 5390 5400 5397 5402 5414 5401 5412 5432 5461 5462 5461 5455 5456 5467 5479 5482 5489
5259 5266 5275 5284 5292 5300 5306 5307 5311 5318 5319 5322 5323 5325 5327 5329 5329 5327 5328 5324 5322 5322 5330 5336 5342 5344 5338 5337 5335 5331 5333 5338 5332 5332 5340 5347 5350 5379 5388 5403 5389 5400 5406 5400 5407 5425 5418 5417 5433 5446 5449 5456 5470 5476
5247 5254 5263 5273 5282 5290 5298 5300 5303 5307 5310 5313 5315 5318 5320 5321 5322 5320 5322 5321 5320 5318 5325 5347 5342 5341 5343 5339 5334 5331 5332 5329 5329 5328 5336 5353 5358 5380 5385 5382 5377 5383 5385 5386 5405 5407 5403 5401 5406 5419 5430 5434 5441 5452
5242 5247 5254 5264 5274 5282 5290 5297 5299 5297 5297 5303 5305 5309 5312 5314 5315 5314 5316 5317 5320 5323 5325 5339 5341 5349 5345 5340 5335 5329 5324 5325 5325 5326 5334 5345 5366 5372 5380 5381 5383 5378 5371 5373 5388 5377 5386 5382 5388 5398 5408 5411 5420 5434
5238 5243 5248 5257 5268 5277 5284 5290 5294 5292 5294 5294 5296 5299 5304 5307 5308 5307 5308 5314 5315 5314 5316 5328 5344 5346 5342 5339 5333 5329 5326 5323 5321 5323 5332 5350 5365 5364 5373 5390 5374 5369 5361 5354 5361 5367 5368 5374 5377 5386 5392 5395 5400 5403
5233 5238 5246 5256 5266 5277 5283 5285 5284 5284 5285 5287 5291 5295 5298 5301 5303 5308 5317 5317 5315 5308 5307 5319 5344 5343 5338 5335 5330 5324 5322 5318 5321 5328 5339 5356 5368 5363 5376 5383 5387 5363 5355 5354 5353 5360 5366 5362 5367 5372 5383 5387 5392 5397
5231 5236 5246 5256 5267 5272 5281 5281 5281 5280 5280 5284 5287 5290 5292 5293 5295 5302 5304 5309 5307 5306 5309 5318 5338 5344 5337 5336 5334 5326 5323 5321 5326 5341 5346 5358 5368 5369 5380 5379 5364 5354 5351 5351 5355 5354 5350 5353 5360 5365 5373 5383 5386 5390
5229 5237 5247 5258 5265 5272 5277 5279 5278 5276 5277 5280 5283 5284 5286 5290 5296 5305 5303 5301 5300 5302 5318 5322 5340 5350 5336 5339 5339 5331 5331 5330 5345 5342 5353 5358 5369 5376 5367 5362 5351 5343 5341 5343 5352 5351 5353 5352 5357 5362 5365 5369 5376 5378
5232 5240 5251 5261 5268 5272 5276 5278 5277 5276 5277 5277 5279 5281 5288 5293 5297 5299 5297 5299 5301 5307 5309 5322 5348 5347 5346 5342 5341 5345 5341 5354 5354 5361 5364 5359 5377 5343 5337 5335 5335 5333 5334 5338 5346 5344 5342 5345 5348 5350 5352 5353 5355 5361
5240 5249 5258 5264 5269 5272 5275 5276 5276 5275 5275 5279 5280 5287 5293 5294 5296 5297 5305 5310 5314 5322 5324 5339 5350 5352 5350 5349 5348 5351 5358 5355 5366 5373 5367 5378 5371 5334 5330 5329 5328 5327 5328 5327 5329 5327 5329 5328 5332 5339 5342 5343 5344 5347
5255 5259 5266 5267 5270 5273 5274 5275 5276 5282 5285 5288 5293 5291 5289 5296 5302 5311 5320 5324 5331 5349 5350 5343 5345 5349 5358 5357 5357 5352 5356 5360 5369 5372 5366 5378 5333 5324 5324 5321 5321 5319 5318 5318 5318 5319 5320 5318 5319 5324 5325 5326 5327 5327
5263 5264 5265 5268 5270 5271 5274 5276 5279 5281 5285 5288 5294 5299 5305 5312 5323 5327 5331 5343 5350 5353 5348 5343 5343 5351 5351 5351 5353 5355 5366 5374 5375 5369 5370 5340 5323 5317 5314 5314 5310 5307 5305 5306 5306 5307 5307 5305 5303 5307 5310 5312 5316 5317
5262 5264 5267 5268 5271 5274 5275 5276 5278 5283 5290 5295 5301 5318 5324 5323 5339 5347 5357 5364 5346 5348 5346 5347 5349 5349 5352 5353 5358 5364 5367 5367 5378 5375 5353 5328 5316 5310 5306 5302 5300 5293 5288 5288 5287 5289 5289 5292 5292 5293 5294 5298 5301 5306
5261 5263 5267 5270 5272 5273 5274 5277 5280 5284 5287 5298 5312 5331 5327 5327 5327 5329 5331 5335 5330 5336 5346 5347 5348 5352 5357 5357 5364 5370 5372 5365 5354 5347 5320 5314 5308 5303 5299 5295 5291 5286 5281 5279 5277 5276 5275 5277 5280 5281 5283 5286 5289 5290
5265 5267 5269 5272 5274 5276 5276 5279 5279 5282 5285 5292 5299 5317 5319 5327 5323 5323 5326 5324 5318 5325 5334 5339 5352 5355 5361 5363 5364 5356 5363 5362 5331 5319 5309 5304 5296 5292 5288 5284 5279 5276 5274 5272 5271 5271 5268 5268 5270 5271 5271 5273 5275 5276
5276 5279 5276 5278 5279 5279 5279 5279 5280 5284 5289 5292 5295 5291 5302 5313 5316 5309 5308 5307 5306 5319 5343 5348 5355 5357 5347 5353 5341 5328 5332 5319 5308 5300 5296 5289 5285 5279 5277 5276 5272 5269 5265 5263 5261 5260 5259 5259 5261 5264 5265 5262 5263 5262
5286 5284 5284 5284 5284 5281 5279 5284 5288 5289 5286 5290 5297 5289 5287 5288 5296 5296 5295 5297 5307 5322 5330 5332 5331 5337 5340 5346 5325 5305 5300 5295 5292 5289 5283 5274 5270 5267 5267 5267 5263 5262 5259 5254 5251 5249 5248 5250 5254 5255 5251 5250 5252 5251
5292 5292 5290 5290 5294 5293 5289 5286 5294 5289 5286 5284 5283 5283 5284 5284 5282 5283 5287 5291 5293 5297 5306 5309 5310 5308 5300 5292 5293 5289 5288 5287 5281 5276 5268 5261 5259 5255 5253 5250 5249 5248 5245 5244 5244 5244 5240 5235 5238 5239 5238 5238 5238 5236
5295 5295 5294 5295 5300 5296 5293 5290 5291 5293 5291 5284 5283 5284 5282 5280 5277 5278 5283 5287 5290 5292 5288 5287 5283 5277 5280 5274 5273 5274 5274 5273 5271 5267 5262 5254 5248 5244 5242 5241 5239 5234 5233 5229 5228 5224 5226 5224 5221 5220 5219 5219 5221 5220
5298 5292 5293 5296 5295 5298 5298 5296 5291 5291 5287 5287 5283 5287 5282 5281 5282 5283 5284 5284 5286 5279 5276 5270 5267 5263 5260 5259 5259 5260 5258 5260 5258 5259 5256 5247 5238 5235 5230 5227 5224 5223 5222 5219 5217 5211 5210 5209 5206 5203 5203 5202 5200 5200
5306 5302 5300 5298 5301 5300 5300 5299 5301 5298 5296 5293 5291 5290 5288 5287 5283 5279 5280 5281 5273 5264 5265 5263 5258 5255 5251 5248 5244 5244 5241 5240 5237 5235 5231 5228 5226 5222 5218 5213 5212 5208 5204 5201 5199 5196 5193 5190 5187 5184 5183 5181 5180 5179
5311 5309 5310 5312 5310 5309 5297 5300 5304 5302 5298 5294 5293 5290 5285 5283 5279 5277 5273 5268 5261 5255 5252 5248 5243 5240 5237 5232 5229 5225 5224 5226 5224 5220 5216 5213 5208 5204 5201 5196 5193 5191 5188 5182 5179 5177 5173 5168 5165 5166 5164 5164 5163 5161
5325 5312 5310 5310 5314 5301 5300 5304 5308 5304 5299 5298 5296 5287 5283 5282 5276 5275 5269 5260 5254 5251 5247 5240 5239 5235 5230 5225 5224 5217 5213 5213 5210 5205 5202 5201 5196 5189 5185 5180 5174 5170 5166 5163 5160 5157 5153 5151 5147 5148 5146 5146 5145 5145
5330 5295 5304 5301 5300 5304 5302 5300 5298 5302 5296 5293 5291 5287 5281 5280 5277 5271 5268 5256 5250 5247 5240 5237 5236 5234 5231 5221 5216 5209 5202 5205 5204 5197 5188 5185 5180 5175 5168 5161 5153 5146 5143 5144 5141 5138 5134 5132 5130 5129 5127 5127 5126 5124
5307 5283 5302 5300 5300 5310 5305 5303 5300 5297 5295 5290 5285 5276 5275 5277 5277 5274 5268 5255 5249 5242 5235 5234 5231 5227 5221 5217 5212 5206 5197 5191 5189 5184 5172 5166 5161 5157 5150 5144 5140 5132 5125 5124 5124 5124 5121 5117 5115 5112 5111 5107 5104 5105
5302 5292 5289 5285 5295 5296 5295 5292 5292 5299 5295 5292 5286 5275 5280 5285 5280 5262 5250 5245 5245 5236 5231 5227 5226 5224 5215 5206 5197 5190 5184 5178 5174 5167 5156 5148 5140 5133 5130 5128 5123 5116 5111 5111 5110 5110 5109 5108 5105 5103 5101 5098 5095 5094
5288 5288 5292 5279 5280 5281 5285 5285 5291 5294 5290 5283 5285 5284 5286 5290 5272 5256 5253 5238 5234 5229 5222 5216 5212 5209 5203 5194 5187 5180 5172 5164 5158 5152 5145 5136 5127 5119 5112 5108 5104 5101 5100 5099 5100 5099 5098 5096 5094 5092 5090 5089 5085 5082
5282 5277 5281 5260 5267 5268 5266 5274 5276 5271 5265 5274 5276 5265 5257 5248 5240 5241 5234 5231 5227 5223 5217 5209 5198 5193 5187 5180 5173 5167 5164 5159 5155 5147 5142 5136 5125 5113 5102 5097 5095 5092 5091 5091 5090 5088 5086 5085 5082 5080 5077 5076 5072 5071
5273 5273 5270 5258 5259 5265 5257 5253 5258 5250 5252 5254 5254 5247 5243 5235 5228 5225 5226 5224 5222 5219 5212 5204 5194 5192 5185 5180 5170 5159 5148 5142 5139 5138 5135 5127 5115 5100 5093 5089 5085 5083 5081 5082 5081 5079 5075 5074 5072 5071 5068 5066 5065 5063
5266 5269 5265 5262 5258 5253 5249 5240 5239 5241 5243 5243 5241 5246 5242 5234 5224 5218 5218 5216 5210 5204 5200 5192 5185 5181 5176 5170 5167 5158 5148 5134 5126 5121 5115 5107 5098 5092 5085 5079 5076 5074 5073 5073 5072 5072 5070 5068 5067 5065 5062 5058 5054 5054
5264 5264 5262 5258 5250 5245 5241 5249 5249 5249 5244 5247 5239 5230 5226 5233 5230 5219 5209 5206 5203 5201 5195 5191 5185 5177 5167 5159 5151 5144 5137 5129 5120 5112 5105 5097 5090 5083 5078 5073 5070 5068 5067 5065 5064 5062 5061 5060 5058 5056 5053 5050 5046 5044
5251 5252 5253 5255 5250 5248 5246 5248 5252 5244 5243 5242 5237 5233 5233 5235 5230 5220 5202 5200 5201 5200 5191 5184 5175 5166 5157 5150 5144 5134 5127 5119 5111 5104 5096 5088 5081 5076 5072 5069 5066 5063 5061 5059 5057 5055 5053 5050 5048 5045 5042 5039 5037 5035